DW3383 Weather Reports


time (UTC)temp
F
wind
direction
speed
knots
gust
knots
rain 1hr
in
rain 24hr
in
rain mn
in
humidity
%
barometer
mb
20220811230807 64 78 0.9 2.6 0.00 0.01 0.00 75 1016.5
20220811230306 64 159 0.9 5.2 0.00 0.01 0.00 74 1016.5
20220811220306 61 34 0.0 1.7 0.00 0.03 0.00 80 1016.9
20220811210806 59 188 0.9 4.3 0.00 0.08 0.00 80 1017.2
20220811200807 57 47 0.9 2.6 0.00 0.13 0.00 83 1017.5
20220811170306 49 278 0.0 2.6 0.00 0.16 0.00 97 1018.1
20220811150806 45 298 0.0 1.7 0.00 0.16 0.00 96 1018.4
20220811150307 45 302 0.0 1.7 0.00 0.16 0.00 96 1018.4
20220811140806 45 274 0.0 1.7 0.00 0.16 0.00 96 1018.5
20220811130306 43 265 0.0 1.7 0.00 0.16 0.00 96 1018.7
20220811100806 42 141 1.7 1.7 0.00 0.16 0.00 96 1019.7
20220811090306 41 299 2.6 2.6 0.00 0.16 0.00 96 1019.8
20220811080806 41 301 2.6 2.6 0.00 0.16 0.00 96 1019.9
20220811070857 44 300 1.7 2.6 0.00 0.16 0.00 96 1019.9
20220811050806 49 294 1.7 1.7 0.00 0.16 0.16 93 1019.5
20220811050306 50 293 1.7 2.6 0.00 0.16 0.16 92 1019.6
20220811040306 51 333 0.9 1.7 0.00 0.16 0.16 94 1019.0
20220811030307 51 291 2.6 4.3 0.00 0.16 0.16 93 1018.8
20220811020808 51 306 1.7 2.6 0.00 0.16 0.16 93 1018.9
20220811020306 51 310 0.9 4.3 0.00 0.16 0.16 93 1018.7
20220811010306 53 2 0.0 1.7 0.00 0.16 0.16 93 1018.3
20220811000807 53 82 0.0 0.9 0.01 0.16 0.16 92 1018.0